Regional Weather Roundup
Issued by NWS Bismarck, ND

Home | Current Version | Previous Version | Text Only | Print | Product List | Glossary On
Versions: 1 2 3 4 5 6 7 8 9 10 11 12 13 14 15 16 17 18 19 20 21 22 23 24 25 26 27 28 29 30 31 32 33 34 35 36 37 38 39 40 41 42 43 44 45 46 47 48 49 50
000
ASUS43 KBIS 242359
RWRBIS

NWR BROADCAST TEXT
NATIONAL WEATHER SERVICE BISMARCK ND
700 PM CDT THU APR 24 2014

NOTE: "FAIR" INDICATES FEW OR NO CLOUDS BELOW 12,000 FEET WITH NO
SIGNIFICANT WEATHER AND/OR OBSTRUCTIONS TO VISIBILITY.


CITY           SKY/WX    TMP DP  RH WIND       PRES   REMARKS
WILLISTON      MOSUNNY   58  25  28 W8        29.70S
MINOT          MOSUNNY   56  33  42 N10       29.69R
MINOT AFB      NOT AVBL
BISMARCK       SUNNY     61  25  25 NW14G25   29.70R
DICKINSON      NOT AVBL
GARRISON         N/A     59  28  30 NW14      29.70R
HETTINGER ARPT SUNNY     60  15  17 NW16      29.73S
JAMESTOWN      NOT AVBL
CARRINGTON     LGT RAIN  45  43  93 NW10G20   29.73R
CROSBY           N/A     57  28  33 MISG        N/A
HARVEY         FAIR      50  37  62 N3        29.69S
HAZEN          FAIR      57  25  28 NW18      29.72R
LINTON         FAIR      63  19  19 NW21G26   29.69S
OAKES          FAIR      57  32  38 W12       29.66S
RUGBY          FAIR      50  37  62 NE6       29.68S
WATFORD CITY   FAIR      57  27  30 NW6       29.69F
$$

CITY           SKY/WX    TMP DP  RH WIND       PRES   REMARKS
GRAND FORKS    CLOUDY    43  40  89 E6        29.71R
GRAND FORKS AF NOT AVBL
DEVILS LAKE    PTSUNNY   50  41  71 NE14      29.67S
FARGO          LGT RAIN  50  43  77 NE7       29.69R
CANDO          FAIR      50  41  71 NE9       29.69R
CAVALIER       CLOUDY    41  39  93 E5        29.73S FOG
GRAFTON        CLOUDY    39  39 100 E9        29.72S FOG
GWINNER        PTCLDY    55  37  50 N13       29.67S
LANGDON        CLOUDY    43  41  93 NE7       29.69F FOG
WALHALLA       CLOUDY    41  41 100 E5        29.72F FOG
$$

CITY           SKY/WX    TMP DP  RH WIND       PRES   REMARKS
ABERDEEN       SUNNY     62  20  19 NW21      29.68R
MOBRIDGE       MOSUNNY   62  17  17 NW15G28   29.68S
BUFFALO          N/A     57  23  26 NW16      29.70S
RAPID CITY     PTSUNNY   58  29  33 NE6       29.77R
GLASGOW        PTSUNNY   59  21  23 W16       29.68S
SIDNEY         MOSUNNY   59  21  23 W9        29.73S
WOLF POINT     MOSUNNY   61  16  17 NW7       29.70R
GLENDIVE       MOSUNNY   59  19  21 W13       29.73S
MILES CITY     CLOUDY    58  30  34 NW10      29.74S
BAKER          PTSUNNY   57  21  24 W16       29.74S
$$

CITY           SKY/WX    TMP DP  RH WIND       PRES   REMARKS
BILLINGS       PTSUNNY   59  30  33 W22G33    29.74F
GREAT FALLS    CLOUDY    53  34  48 NW9       29.73R
$$




USA.gov is the U.S. government's official web portal to all federal, state and local government web resources and services.